,,PA_Meas_PMT16A,,PR_Meas_QMR101_102,,RH_Meas_QMH101,,SR_Meas_QMS101,,TA_Meas_QMH101,,GenWind,,GenWind,
time,status,PA,status,PR,status,RH,status,SR,status,TA,status,DirAvg,status,SpdAvg,
2016-02-08, 08:07:04,VALID,918.417,VALID,0,VALID,104,VALID,109.59,VALID,20.2114,VALID,182,VALID,1.38555,
2016-02-08, 08:08:04,VALID,918.385,VALID,0,VALID,104,VALID,108.623,VALID,20.1903,VALID,139,VALID,0.394141,
2016-02-08, 08:45:04,VALID,918.785,VALID,0,VALID,104,VALID,103.896,VALID,20.2909,VALID,171,VALID,0.320313,
2016-02-08, 08:46:04,VALID,918.798,VALID,0,VALID,104,VALID,101.747,VALID,20.3089,VALID,191,VALID,0.388672,
2016-02-08, 08:55:04,VALID,918.9,VALID,0,VALID,104,VALID,104.863,VALID,20.5625,VALID,173,VALID,0,
2016-02-08, 08:57:04,VALID,918.882,VALID,0,VALID,104,VALID,110.45,VALID,20.5219,VALID,173,VALID,0,
2016-02-08, 08:58:04,VALID,918.893,VALID,0,VALID,104,VALID,114.962,VALID,20.5804,VALID,173,VALID,0,
2016-02-08, 08:59:04,VALID,918.881,VALID,0.2,VALID,104,VALID,115.069,VALID,20.582,VALID,188,VALID,0,
2016-02-08, 09:00:04,VALID,918.889,VALID,0,VALID,104,VALID,113.458,VALID,20.621,VALID,188,VALID,0,
2016-02-08, 09:01:04,VALID,918.869,VALID,0,VALID,104,VALID,111.094,VALID,20.621,VALID,188,VALID,0,
2016-02-08, 09:02:04,VALID,918.889,VALID,0,VALID,104,VALID,112.813,VALID,20.6015,VALID,188,VALID,0,
2016-02-08, 09:03:04,VALID,918.835,VALID,0,VALID,104,VALID,116.359,VALID,20.6405,VALID,177,VALID,0,
2016-02-08, 09:04:04,VALID,918.856,VALID,0,VALID,104,VALID,120.227,VALID,20.66,VALID,166,VALID,0,
2016-02-08, 09:05:04,VALID,918.865,VALID,0,VALID,104,VALID,131.723,VALID,20.6015,VALID,163,VALID,0,
2016-02-08, 09:06:04,VALID,918.854,VALID,0,VALID,104,VALID,145.475,VALID,20.6194,VALID,169,VALID,0,
2016-02-08, 09:07:04,VALID,918.816,VALID,0,VALID,104,VALID,157.831,VALID,20.6795,VALID,168,VALID,0,
2016-02-08, 09:08:04,VALID,918.844,VALID,0,VALID,104,VALID,170.617,VALID,20.66,VALID,185,VALID,0,
2016-02-08, 09:09:04,VALID,918.835,VALID,0,VALID,104,VALID,176.741,VALID,20.66,VALID,163,VALID,1.36758,
2016-02-08, 09:10:04,VALID,918.859,VALID,0,VALID,104,VALID,165.137,VALID,20.621,VALID,182,VALID,0.670703,
2016-02-08, 09:11:04,VALID,918.854,VALID,0,VALID,104,VALID,156.219,VALID,20.6405,VALID,165,VALID,1.36797,
2016-02-08, 09:12:04,VALID,918.872,VALID,0,VALID,104,VALID,167.501,VALID,20.6795,VALID,178,VALID,0,
2016-02-08, 09:13:04,VALID,918.862,VALID,0,VALID,104,VALID,191.89,VALID,20.6795,VALID,186,VALID,0.966797,
2016-02-08, 09:14:04,VALID,918.882,VALID,0,VALID,104,VALID,203.923,VALID,20.6975,VALID,120,VALID,0.738281,
2016-02-08, 09:15:04,VALID,918.888,VALID,0,VALID,104,VALID,221.651,VALID,20.6975,VALID,154,VALID,1.06719,
2016-02-08, 09:16:04,VALID,918.892,VALID,0,VALID,104,VALID,220.039,VALID,20.7576,VALID,151,VALID,0.942578,
2016-02-08, 09:17:04,VALID,918.9,VALID,0,VALID,104,VALID,206.394,VALID,20.7966,VALID,142,VALID,0.451953,
2016-02-08, 09:18:04,VALID,918.889,VALID,0,VALID,104,VALID,225.089,VALID,20.8551,VALID,169,VALID,1.13906,
2016-02-08, 09:19:04,VALID,918.86,VALID,0,VALID,104,VALID,241.42,VALID,20.8746,VALID,169,VALID,0.917578,
2016-02-08, 09:20:04,VALID,918.835,VALID,0,VALID,104,VALID,259.793,VALID,20.8941,VALID,170,VALID,1.37188,
2016-02-08, 09:21:04,VALID,918.827,VALID,0,VALID,104,VALID,324.043,VALID,20.8145,VALID,174,VALID,0.787891,
2016-02-08, 09:22:04,VALID,918.818,VALID,0,VALID,104,VALID,315.77,VALID,20.9136,VALID,150,VALID,0.817969,
2016-02-08, 09:23:04,VALID,918.823,VALID,0,VALID,104,VALID,360.143,VALID,20.9511,VALID,174,VALID,0.814844,
2016-02-08, 09:24:04,VALID,918.858,VALID,0,VALID,104,VALID,326.406,VALID,20.9901,VALID,164,VALID,0.769141,
2016-02-08, 09:25:04,VALID,918.842,VALID,0,VALID,104,VALID,407.954,VALID,21.1282,VALID,179,VALID,0.847656,
2016-02-08, 09:26:04,VALID,918.857,VALID,0,VALID,104,VALID,376.044,VALID,21.0892,VALID,110,VALID,1.13516,
2016-02-08, 09:27:04,VALID,918.881,VALID,0,VALID,104,VALID,334.357,VALID,21.1461,VALID,197,VALID,0,
2016-02-08, 09:28:04,VALID,918.887,VALID,0,VALID,104,VALID,315.662,VALID,21.2827,VALID,155,VALID,0,
2016-02-08, 09:29:04,VALID,918.875,VALID,0,VALID,104,VALID,320.927,VALID,21.4193,VALID,179,VALID,1.12188,
2016-02-08, 09:30:04,VALID,918.898,VALID,0,VALID,104,VALID,337.365,VALID,21.3998,VALID,120,VALID,0.560156,
2016-02-08, 09:31:04,VALID,918.869,VALID,0,VALID,104,VALID,341.985,VALID,21.4778,VALID,70,VALID,0.196875,
2016-02-08, 09:32:04,VALID,918.88,VALID,0,VALID,104,VALID,298.042,VALID,21.5363,VALID,137,VALID,0.780859,
2016-02-08, 09:33:04,VALID,918.946,VALID,0,VALID,104,VALID,316.092,VALID,21.5168,VALID,153,VALID,1.09414,
2016-02-08, 09:34:04,VALID,918.937,VALID,0,VALID,104,VALID,297.612,VALID,21.5754,VALID,158,VALID,0.951953,
2016-02-08, 09:35:04,VALID,918.909,VALID,0,VALID,104,VALID,311.902,VALID,21.5347,VALID,205,VALID,0.892187,
2016-02-08, 09:36:04,VALID,918.911,VALID,0,VALID,104,VALID,305.563,VALID,21.5754,VALID,104,VALID,1.1793,
2016-02-08, 09:37:04,VALID,918.916,VALID,0,VALID,104,VALID,347.357,VALID,21.5542,VALID,109,VALID,0.688672,
2016-02-08, 09:38:04,VALID,918.918,VALID,0,VALID,104,VALID,290.843,VALID,21.5347,VALID,160,VALID,1.225,
2016-02-08, 09:39:04,VALID,918.903,VALID,0,VALID,104,VALID,258.933,VALID,21.5949,VALID,92,VALID,0.988281,
2016-02-08, 09:40:04,VALID,918.925,VALID,0,VALID,104,VALID,245.396,VALID,21.6144,VALID,65,VALID,1.64844,
2016-02-08, 09:41:04,VALID,918.908,VALID,0,VALID,104,VALID,245.396,VALID,21.5347,VALID,154,VALID,0.879687,
2016-02-08, 09:42:04,VALID,918.898,VALID,0,VALID,104,VALID,249.371,VALID,21.5168,VALID,124,VALID,1.74531,
2016-02-08, 09:43:04,VALID,918.873,VALID,0,VALID,104,VALID,241.85,VALID,21.4957,VALID,75,VALID,1.92148,
2016-02-08, 09:44:04,VALID,918.897,VALID,0,VALID,104,VALID,237.982,VALID,21.4372,VALID,150,VALID,0.975781,
2016-02-08, 09:45:04,VALID,918.907,VALID,0,VALID,104,VALID,236.263,VALID,21.5152,VALID,147,VALID,0,
2016-02-08, 09:46:04,VALID,918.907,VALID,0,VALID,104,VALID,243.677,VALID,21.5737,VALID,193,VALID,1.09453,
2016-02-08, 09:47:04,VALID,918.898,VALID,0,VALID,104,VALID,256.999,VALID,21.5932,VALID,162,VALID,0,
2016-02-08, 09:48:04,VALID,918.9,VALID,0,VALID,104,VALID,269.462,VALID,21.5932,VALID,161,VALID,0.705859,
2016-02-08, 09:49:04,VALID,918.862,VALID,0,VALID,104,VALID,280.207,VALID,21.6323,VALID,180,VALID,0.650781,
2016-02-08, 09:50:04,VALID,918.889,VALID,0,VALID,104,VALID,285.256,VALID,21.6128,VALID,136,VALID,1.01523,
2016-02-08, 09:51:04,VALID,918.934,VALID,0,VALID,104,VALID,288.479,VALID,21.5737,VALID,85,VALID,1.59063,
2016-02-08, 09:52:04,VALID,918.904,VALID,0,VALID,104,VALID,293.314,VALID,21.5347,VALID,93,VALID,0.364062,
2016-02-08, 09:53:04,VALID,918.854,VALID,0,VALID,104,VALID,307.926,VALID,21.5331,VALID,195,VALID,1.18555,
2016-02-08, 09:54:04,VALID,918.888,VALID,0,VALID,104,VALID,315.662,VALID,21.5331,VALID,152,VALID,1.10391,
2016-02-08, 09:55:04,VALID,918.865,VALID,0,VALID,104,VALID,323.398,VALID,21.5737,VALID,140,VALID,0.834766,
2016-02-08, 09:56:04,VALID,918.894,VALID,0,VALID,104,VALID,325.762,VALID,21.6501,VALID,121,VALID,0,
2016-02-08, 09:57:04,VALID,918.91,VALID,0,VALID,104,VALID,335.646,VALID,21.6696,VALID,158,VALID,1.03594,
2016-02-08, 09:58:04,VALID,918.952,VALID,0,VALID,104,VALID,334.357,VALID,21.7087,VALID,164,VALID,1.13984,
2016-02-08, 09:59:04,VALID,918.919,VALID,0,VALID,104,VALID,347.25,VALID,21.6306,VALID,71,VALID,1.01758,
2016-02-08, 10:00:04,VALID,918.936,VALID,0,VALID,104,VALID,328.233,VALID,21.7087,VALID,178,VALID,0.984375,
2016-02-08, 10:01:04,VALID,918.976,VALID,0,VALID,104,VALID,278.165,VALID,21.7688,VALID,151,VALID,0.887891,
2016-02-08, 10:02:04,VALID,919.006,VALID,0,VALID,104,VALID,257.322,VALID,21.7883,VALID,172,VALID,1.33594,
2016-02-08, 10:03:04,VALID,919.029,VALID,0,VALID,104,VALID,247.652,VALID,21.7688,VALID,165,VALID,1.0043,
2016-02-08, 10:04:04,VALID,919.039,VALID,0,VALID,104,VALID,234.974,VALID,21.7883,VALID,161,VALID,1.00469,
2016-02-08, 10:05:04,VALID,919.043,VALID,0,VALID,104,VALID,215.312,VALID,21.7103,VALID,158,VALID,1.1918,
2016-02-08, 10:06:04,VALID,919.041,VALID,0,VALID,104,VALID,194.146,VALID,21.6128,VALID,159,VALID,2.02617,
2016-02-08, 10:07:04,VALID,919.021,VALID,0,VALID,103.793,VALID,174.484,VALID,21.4957,VALID,134,VALID,1.18711,
2016-02-08, 10:08:04,VALID,919.047,VALID,0,VALID,104,VALID,155.038,VALID,21.5347,VALID,130,VALID,0.692969,
2016-02-08, 10:09:04,VALID,919.055,VALID,0,VALID,104,VALID,141.393,VALID,21.4762,VALID,192,VALID,1.45313,
2016-02-08, 10:10:04,VALID,919.062,VALID,0,VALID,104,VALID,139.566,VALID,21.4957,VALID,124,VALID,1.1168,
2016-02-08, 10:11:04,VALID,919.016,VALID,0,VALID,104,VALID,149.558,VALID,21.4957,VALID,160,VALID,1.06484,
2016-02-08, 10:12:04,VALID,919.042,VALID,0,VALID,104,VALID,171.691,VALID,21.4957,VALID,162,VALID,0.548828,
2016-02-08, 10:13:04,VALID,919.014,VALID,0,VALID,104,VALID,209.833,VALID,21.5347,VALID,168,VALID,0.0160156,
2016-02-08, 10:14:04,VALID,919.023,VALID,0,VALID,104,VALID,240.024,VALID,21.4957,VALID,167,VALID,0.492969,
2016-02-08, 10:15:04,VALID,918.986,VALID,0,VALID,104,VALID,255.925,VALID,21.4762,VALID,240,VALID,1.19453,
2016-02-08, 10:16:04,VALID,919.032,VALID,0,VALID,104,VALID,264.198,VALID,21.4957,VALID,59,VALID,1.66133,
2016-02-08, 10:17:04,VALID,919.026,VALID,0,VALID,104,VALID,274.62,VALID,21.5136,VALID,67,VALID,0.835547,
2016-02-08, 10:18:04,VALID,919.017,VALID,0,VALID,104,VALID,290.951,VALID,21.5737,VALID,155,VALID,0.960156,
2016-02-08, 10:19:04,VALID,919.025,VALID,0,VALID,104,VALID,316.199,VALID,21.5916,VALID,173,VALID,0,
2016-02-08, 10:20:04,VALID,919.036,VALID,0,VALID,104,VALID,340.374,VALID,21.6713,VALID,144,VALID,0.831641,
2016-02-08, 10:21:04,VALID,919.003,VALID,0,VALID,104,VALID,341.985,VALID,21.7298,VALID,109,VALID,1.25937,
2016-02-08, 10:22:04,VALID,918.992,VALID,0,VALID,104,VALID,326.514,VALID,21.7493,VALID,145,VALID,1.86719,
2016-02-08, 10:23:04,VALID,919.003,VALID,0,VALID,104,VALID,318.563,VALID,21.7298,VALID,141,VALID,1.43867,
2016-02-08, 10:24:04,VALID,918.98,VALID,0,VALID,104,VALID,319.637,VALID,21.7087,VALID,171,VALID,1.5125,
2016-02-08, 10:25:04,VALID,918.967,VALID,0,VALID,104,VALID,322.001,VALID,21.6518,VALID,139,VALID,1.62734,
2016-02-08, 10:26:04,VALID,918.984,VALID,0,VALID,104,VALID,331.134,VALID,21.6908,VALID,90,VALID,1.54453,
2016-02-08, 10:27:04,VALID,918.971,VALID,0,VALID,104,VALID,349.184,VALID,21.7103,VALID,174,VALID,0.667969,
2016-02-08, 10:28:04,VALID,918.96,VALID,0,VALID,104,VALID,369.705,VALID,21.6908,VALID,142,VALID,1.23555,
2016-02-08, 10:29:04,VALID,918.956,VALID,0,VALID,104,VALID,397.103,VALID,21.7883,VALID,62,VALID,2.09492,
2016-02-08, 10:30:04,VALID,918.975,VALID,0,VALID,104,VALID,418.913,VALID,21.7477,VALID,76,VALID,0.903516,
2016-02-08, 10:31:04,VALID,918.967,VALID,0,VALID,104,VALID,427.186,VALID,21.8647,VALID,54,VALID,2.01797,
2016-02-08, 10:32:04,VALID,919.008,VALID,0,VALID,104,VALID,424.07,VALID,21.964,VALID,86,VALID,1.86992,
2016-02-08, 10:33:04,VALID,918.946,VALID,0,VALID,104,VALID,428.69,VALID,21.8859,VALID,125,VALID,1.92578,
2016-02-08, 10:34:04,VALID,918.918,VALID,0,VALID,104,VALID,420.954,VALID,21.8859,VALID,86,VALID,2.7168,
2016-02-08, 10:35:04,VALID,918.959,VALID,0,VALID,103.64,VALID,426.326,VALID,21.8452,VALID,114,VALID,2.20703,
2016-02-08, 10:36:04,VALID,918.921,VALID,0,VALID,104,VALID,451.038,VALID,21.8647,VALID,77,VALID,2.73555,
2016-02-08, 10:37:04,VALID,918.901,VALID,0,VALID,103.572,VALID,438.467,VALID,21.8452,VALID,127,VALID,2.98594,
2016-02-08, 10:38:04,VALID,918.875,VALID,0,VALID,103.366,VALID,395.706,VALID,21.8452,VALID,104,VALID,3.10352,
2016-02-08, 10:39:04,VALID,918.891,VALID,0,VALID,103.419,VALID,448.352,VALID,21.8859,VALID,106,VALID,1.31289,
2016-02-08, 10:40:04,VALID,918.88,VALID,0,VALID,103.335,VALID,448.459,VALID,21.9233,VALID,81,VALID,1.50156,
2016-02-08, 10:41:04,VALID,918.882,VALID,0,VALID,102.657,VALID,494.659,VALID,21.9623,VALID,123,VALID,2.62305,
2016-02-08, 10:42:04,VALID,918.891,VALID,0,VALID,103.191,VALID,557.62,VALID,22.0598,VALID,103,VALID,1.36992,
2016-02-08, 10:43:04,VALID,918.854,VALID,0,VALID,103.686,VALID,534.197,VALID,22.1574,VALID,92,VALID,2.24648,
2016-02-08, 10:44:04,VALID,918.878,VALID,0,VALID,102.687,VALID,499.064,VALID,22.1557,VALID,120,VALID,2.21445,
2016-02-08, 10:45:04,VALID,918.809,VALID,0,VALID,101.43,VALID,462.642,VALID,22.2354,VALID,107,VALID,2.83828,
2016-02-08, 10:46:04,VALID,918.85,VALID,0,VALID,101.323,VALID,448.03,VALID,22.2745,VALID,111,VALID,2.54922,
2016-02-08, 10:47:04,VALID,918.821,VALID,0,VALID,100.804,VALID,456.84,VALID,22.3152,VALID,57,VALID,2.59492,
2016-02-08, 10:48:04,VALID,918.834,VALID,0,VALID,100.865,VALID,453.402,VALID,22.3916,VALID,144,VALID,0.894922,
2016-02-08, 10:49:04,VALID,918.808,VALID,0,VALID,101.818,VALID,385.821,VALID,22.5477,VALID,27,VALID,1.85898,
2016-02-08, 10:50:04,VALID,918.819,VALID,0,VALID,97.3891,VALID,349.721,VALID,22.6257,VALID,129,VALID,2.51055,
2016-02-08, 10:51:04,VALID,918.815,VALID,0,VALID,97.2824,VALID,313.084,VALID,22.6647,VALID,99,VALID,1.56094,
2016-02-08, 10:52:04,VALID,918.805,VALID,0,VALID,93.4402,VALID,308.356,VALID,22.6825,VALID,72,VALID,2.2375,
2016-02-08, 10:53:04,VALID,918.813,VALID,0,VALID,95.2165,VALID,285.686,VALID,22.7233,VALID,88,VALID,1.67617,
2016-02-08, 10:54:04,VALID,918.785,VALID,0,VALID,88.2563,VALID,263.338,VALID,22.6825,VALID,161,VALID,1.27617,
2016-02-08, 10:55:04,VALID,918.813,VALID,0,VALID,86.6325,VALID,256.677,VALID,22.6647,VALID,61,VALID,3.00664,
2016-02-08, 10:56:04,VALID,918.791,VALID,0,VALID,88.546,VALID,283.43,VALID,22.6257,VALID,74,VALID,2.09219,
2016-02-08, 10:57:04,VALID,918.784,VALID,0,VALID,92.4263,VALID,339.621,VALID,22.6257,VALID,85,VALID,2.47578,
2016-02-08, 10:58:04,VALID,918.762,VALID,0,VALID,89.3998,VALID,461.89,VALID,22.585,VALID,81,VALID,0.917188,
2016-02-08, 10:59:04,VALID,918.747,VALID,0,VALID,92.838,VALID,502.395,VALID,22.624,VALID,68,VALID,1.5457,
2016-02-08, 11:00:04,VALID,918.752,VALID,0,VALID,89.0415,VALID,420.74,VALID,22.7411,VALID,20,VALID,1.2332,
2016-02-08, 11:01:04,VALID,918.722,VALID,0,VALID,85.2374,VALID,384.747,VALID,22.8387,VALID,57,VALID,3.59414,
2016-02-08, 11:02:04,VALID,918.751,VALID,0,VALID,91.3514,VALID,340.803,VALID,22.7996,VALID,56,VALID,1.8668,
2016-02-08, 11:03:04,VALID,918.735,VALID,0,VALID,88.9576,VALID,345.101,VALID,22.7801,VALID,31,VALID,1.71523,
2016-02-08, 11:04:04,VALID,918.775,VALID,0,VALID,98.2811,VALID,321.679,VALID,22.8387,VALID,153,VALID,0.922656,
2016-02-08, 11:05:04,VALID,918.789,VALID,0,VALID,98.1743,VALID,302.769,VALID,22.9362,VALID,96,VALID,0,
2016-02-08, 11:06:04,VALID,918.803,VALID,0,VALID,87.959,VALID,291.918,VALID,22.9557,VALID,116,VALID,0.776172,
2016-02-08, 11:07:04,VALID,918.785,VALID,0,VALID,88.0428,VALID,327.588,VALID,23.0356,VALID,48,VALID,1.6957,
2016-02-08, 11:08:04,VALID,918.646,VALID,0,VALID,83.7356,VALID,321.249,VALID,22.9948,VALID,28,VALID,3.91211,
2016-02-08, 11:09:04,VALID,918.796,VALID,0,VALID,89.9639,VALID,321.142,VALID,23.0338,VALID,91,VALID,1.29922,
2016-02-08, 11:10:04,VALID,918.813,VALID,0,VALID,83.667,VALID,310.612,VALID,22.9557,VALID,124,VALID,0.65,
2016-02-08, 11:11:04,VALID,918.802,VALID,0,VALID,86.5639,VALID,277.735,VALID,22.9753,VALID,52,VALID,0.409375,
2016-02-08, 11:12:04,VALID,918.755,VALID,0,VALID,86.8536,VALID,254.098,VALID,22.977,VALID,40,VALID,1.60625,
2016-02-08, 11:13:04,VALID,918.796,VALID,0,VALID,82.7217,VALID,234.437,VALID,23.016,VALID,75,VALID,1.71875,
2016-02-08, 11:14:04,VALID,918.805,VALID,0,VALID,82.1957,VALID,203.279,VALID,22.9185,VALID,89,VALID,1.33086,
2016-02-08, 11:15:04,VALID,918.812,VALID,0,VALID,84.0024,VALID,200.27,VALID,22.8404,VALID,81,VALID,1.88437,
2016-02-08, 11:16:04,VALID,918.793,VALID,0,VALID,85.1688,VALID,234.114,VALID,22.7818,VALID,97,VALID,1.63125,
2016-02-08, 11:17:04,VALID,918.779,VALID,0,VALID,85.2298,VALID,274.512,VALID,22.7623,VALID,77,VALID,1.28594,
2016-02-08, 11:18:04,VALID,918.772,VALID,0,VALID,94.9801,VALID,290.628,VALID,22.8014,VALID,81,VALID,0.883594,
2016-02-08, 11:19:04,VALID,918.734,VALID,0,VALID,84.719,VALID,280.636,VALID,22.6843,VALID,104,VALID,1.91523,
2016-02-08, 11:20:04,VALID,918.766,VALID,0,VALID,85.8168,VALID,258.181,VALID,22.585,VALID,121,VALID,1.54297,
2016-02-08, 11:21:04,VALID,918.807,VALID,0,VALID,95.1326,VALID,249.156,VALID,22.6062,VALID,57,VALID,1.96953,
2016-02-08, 11:22:04,VALID,918.801,VALID,0,VALID,91.8698,VALID,255.495,VALID,22.5086,VALID,42,VALID,2.52305,
2016-02-08, 11:23:04,VALID,918.804,VALID,0,VALID,91.6335,VALID,247.437,VALID,22.5086,VALID,20,VALID,1.52969,
2016-02-08, 11:24:04,VALID,918.805,VALID,0,VALID,90.7796,VALID,243.784,VALID,22.5672,VALID,354,VALID,0.00585938,
2016-02-08, 11:25:04,VALID,918.787,VALID,0,VALID,90.6424,VALID,248.404,VALID,22.6647,VALID,350,VALID,0,
2016-02-08, 11:26:04,VALID,918.801,VALID,0,VALID,90.2612,VALID,243.569,VALID,22.7623,VALID,21,VALID,0.0101562,
2016-02-08, 11:27:04,VALID,918.8,VALID,0,VALID,84.3531,VALID,221.544,VALID,22.7818,VALID,115,VALID,0.898828,
2016-02-08, 11:28:04,VALID,918.784,VALID,0,VALID,89.0567,VALID,192.427,VALID,22.7606,VALID,163,VALID,0.0289063,
2016-02-08, 11:29:04,VALID,918.795,VALID,0,VALID,86.5563,VALID,176.311,VALID,22.7623,VALID,146,VALID,0,
2016-02-08, 11:30:04,VALID,918.764,VALID,0,VALID,84.6657,VALID,174.162,VALID,22.7233,VALID,208,VALID,0,
2016-02-08, 11:31:04,VALID,918.745,VALID,0,VALID,83.9948,VALID,189.096,VALID,22.7428,VALID,157,VALID,0,
2016-02-08, 11:32:04,VALID,918.747,VALID,0,VALID,84.0329,VALID,205.535,VALID,22.8014,VALID,131,VALID,0,
2016-02-08, 11:33:04,VALID,918.726,VALID,0,VALID,85.5957,VALID,221.544,VALID,22.8014,VALID,27,VALID,0,
2016-02-08, 11:34:04,VALID,918.721,VALID,0,VALID,90.7263,VALID,249.156,VALID,22.7996,VALID,45,VALID,0,
2016-02-08, 11:35:04,VALID,918.69,VALID,0,VALID,89.011,VALID,233.47,VALID,22.8209,VALID,11,VALID,0,
2016-02-08, 11:36:04,VALID,918.686,VALID,0,VALID,95.2927,VALID,214.56,VALID,22.8209,VALID,2,VALID,0,
2016-02-08, 11:37:04,VALID,918.667,VALID,0,VALID,87.1585,VALID,204.89,VALID,22.7996,VALID,3,VALID,0,
2016-02-08, 11:38:04,VALID,918.667,VALID,0,VALID,86.2361,VALID,194.576,VALID,22.7996,VALID,2,VALID,0,
2016-02-08, 11:39:04,VALID,918.65,VALID,0,VALID,86.724,VALID,178.137,VALID,22.8794,VALID,2,VALID,0,
2016-02-08, 11:40:04,VALID,918.657,VALID,0,VALID,86.9298,VALID,162.129,VALID,22.9185,VALID,3,VALID,0,
2016-02-08, 11:41:04,VALID,918.644,VALID,0,VALID,87.311,VALID,162.881,VALID,22.8582,VALID,18,VALID,0,
2016-02-08, 11:42:04,VALID,918.617,VALID,0,VALID,91.4505,VALID,194.791,VALID,22.7818,VALID,341,VALID,1.55664,
2016-02-08, 11:43:04,VALID,918.599,VALID,0,VALID,91.2447,VALID,235.081,VALID,22.6843,VALID,346,VALID,1.5418,
2016-02-08, 11:44:04,VALID,918.578,VALID,0,VALID,98.3344,VALID,224.552,VALID,22.6452,VALID,37,VALID,1.28672,
2016-02-08, 11:45:04,VALID,918.605,VALID,0,VALID,96.5582,VALID,240.561,VALID,22.5672,VALID,65,VALID,2.15078,
2016-02-08, 11:46:04,VALID,918.582,VALID,0,VALID,98.6622,VALID,259.148,VALID,22.4501,VALID,55,VALID,1.93125,
2016-02-08, 11:47:04,VALID,918.565,VALID,0,VALID,98.7995,VALID,285.149,VALID,22.4094,VALID,40,VALID,1.58477,
2016-02-08, 11:48:04,VALID,918.47,VALID,0,VALID,87.4634,VALID,302.125,VALID,22.3916,VALID,66,VALID,3.07734,
2016-02-08, 11:49:04,VALID,918.541,VALID,0,VALID,85.9998,VALID,305.025,VALID,22.4094,VALID,111,VALID,2.22734,
2016-02-08, 11:50:04,VALID,918.497,VALID,0,VALID,95.6967,VALID,287.62,VALID,22.4501,VALID,55,VALID,3.00391,
2016-02-08, 11:51:04,VALID,918.542,VALID,0,VALID,100.332,VALID,265.38,VALID,22.4696,VALID,13,VALID,1.90117,
2016-02-08, 11:52:04,VALID,918.527,VALID,0,VALID,97.3205,VALID,266.239,VALID,22.4891,VALID,3,VALID,1.88242,
2016-02-08, 11:53:04,VALID,918.514,VALID,0,VALID,90.7491,VALID,274.297,VALID,22.4891,VALID,22,VALID,2.25312,
2016-02-08, 11:54:04,VALID,918.532,VALID,0,VALID,82.4091,VALID,292.24,VALID,22.5281,VALID,92,VALID,1.77969,
2016-02-08, 11:55:04,VALID,918.487,VALID,0,VALID,82.8055,VALID,318.456,VALID,22.5867,VALID,53,VALID,2.56523,
2016-02-08, 11:56:04,VALID,918.494,VALID,0,VALID,82.6759,VALID,327.481,VALID,22.6062,VALID,104,VALID,0.842188,
2016-02-08, 11:57:04,VALID,918.465,VALID,0,VALID,81.0064,VALID,329.844,VALID,22.6843,VALID,80,VALID,0,
2016-02-08, 11:58:04,VALID,918.442,VALID,0,VALID,83.3544,VALID,317.489,VALID,22.8404,VALID,71,VALID,0,
2016-02-08, 11:59:04,VALID,918.46,VALID,0,VALID,85.4204,VALID,317.811,VALID,22.977,VALID,47,VALID,1.44453,
2016-02-08, 12:00:04,VALID,918.447,VALID,0,VALID,79.5427,VALID,350.795,VALID,22.9575,VALID,42,VALID,1.18477,
2016-02-08, 12:01:04,VALID,918.454,VALID,0,VALID,80.4347,VALID,384.102,VALID,22.938,VALID,55,VALID,0.0308594,
2016-02-08, 12:02:04,VALID,918.443,VALID,0,VALID,81.4333,VALID,372.928,VALID,23.0551,VALID,32,VALID,0,
2016-02-08, 12:03:04,VALID,918.413,VALID,0,VALID,81.906,VALID,314.91,VALID,23.0551,VALID,33,VALID,0,
2016-02-08, 12:04:04,VALID,918.38,VALID,0,VALID,83.2401,VALID,265.917,VALID,23.0356,VALID,37,VALID,0,
2016-02-08, 12:05:04,VALID,918.374,VALID,0,VALID,82.6226,VALID,240.668,VALID,23.0356,VALID,4,VALID,0,
2016-02-08, 12:06:04,VALID,918.373,VALID,0,VALID,89.3159,VALID,234.759,VALID,23.0746,VALID,18,VALID,0,
2016-02-08, 12:07:04,VALID,918.381,VALID,0,VALID,81.7001,VALID,236.478,VALID,22.9557,VALID,333,VALID,0,
2016-02-08, 12:08:04,VALID,918.327,VALID,0,VALID,83.5755,VALID,231.321,VALID,22.8599,VALID,333,VALID,0,
2016-02-08, 12:09:04,VALID,918.344,VALID,0,VALID,89.4837,VALID,205.75,VALID,22.8599,VALID,340,VALID,0,
2016-02-08, 12:10:04,VALID,918.332,VALID,0,VALID,84.8486,VALID,168.683,VALID,22.8599,VALID,21,VALID,0,
2016-02-08, 12:11:04,VALID,918.303,VALID,0,VALID,89.8953,VALID,148.699,VALID,22.8191,VALID,21,VALID,0,
2016-02-08, 12:12:04,VALID,918.304,VALID,0,VALID,96.7945,VALID,145.905,VALID,22.8387,VALID,49,VALID,0,
2016-02-08, 12:13:04,VALID,918.288,VALID,0,VALID,91.1151,VALID,151.385,VALID,22.8582,VALID,342,VALID,0,
2016-02-08, 12:14:04,VALID,918.298,VALID,0,VALID,85.1002,VALID,159.872,VALID,22.7818,VALID,341,VALID,0,
2016-02-08, 12:15:04,VALID,918.227,VALID,0,VALID,85.2222,VALID,173.303,VALID,22.7411,VALID,32,VALID,0,
2016-02-08, 12:16:04,VALID,918.235,VALID,0,VALID,95.9864,VALID,187.485,VALID,22.7021,VALID,24,VALID,0,
2016-02-08, 12:17:04,VALID,918.268,VALID,0,VALID,84.7495,VALID,191.138,VALID,22.5655,VALID,324,VALID,0,
2016-02-08, 12:18:04,VALID,918.272,VALID,0,VALID,86.7087,VALID,181.468,VALID,22.4094,VALID,327,VALID,0,
2016-02-08, 12:19:04,VALID,918.247,VALID,0,VALID,88.9653,VALID,158.368,VALID,22.3118,VALID,328,VALID,0,
2016-02-08, 12:20:04,VALID,918.274,VALID,0,VALID,93.5393,VALID,145.26,VALID,22.2728,VALID,341,VALID,0,
2016-02-08, 12:21:04,VALID,918.247,VALID,0,VALID,99.3712,VALID,148.269,VALID,22.2338,INVALID,360,VALID,0,
2016-02-08, 12:22:04,VALID,918.239,VALID,0,VALID,89.9029,VALID,148.699,VALID,22.1362,VALID,351,VALID,0,
2016-02-08, 12:23:04,VALID,918.248,VALID,0,VALID,94.9801,VALID,149.021,VALID,22.1557,VALID,351,VALID,0,
2016-02-08, 12:24:04,VALID,918.234,VALID,0,VALID,90.5204,VALID,149.558,VALID,22.1362,VALID,33,VALID,0.178906,
2016-02-08, 12:25:04,VALID,918.238,VALID,0,VALID,88.3478,VALID,150.632,VALID,21.9996,VALID,64,VALID,0,
2016-02-08, 12:26:04,VALID,918.215,VALID,0,VALID,97.1833,VALID,148.269,VALID,21.9021,VALID,60,VALID,0,
2016-02-08, 12:27:04,VALID,918.212,VALID,0,VALID,96.1999,VALID,139.888,VALID,21.8257,VALID,56,VALID,0,
2016-02-08, 12:28:04,VALID,918.219,VALID,0,VALID,96.238,VALID,125.814,VALID,21.8062,VALID,56,VALID,0,
2016-02-08, 12:29:04,VALID,918.17,VALID,0,VALID,99.638,VALID,134.624,VALID,21.7477,VALID,56,VALID,0,
2016-02-08, 12:30:04,VALID,918.198,VALID,0,VALID,99.7143,VALID,155.575,VALID,21.7477,VALID,32,VALID,0,
2016-02-08, 12:31:04,VALID,918.184,VALID,0,VALID,100.164,VALID,169.22,VALID,21.7477,VALID,31,VALID,0,
2016-02-08, 12:32:04,VALID,918.13,VALID,0,VALID,101.795,VALID,177.6,VALID,21.7282,VALID,35,VALID,0,
2016-02-08, 12:33:04,VALID,918.16,VALID,0,VALID,100.4,VALID,188.022,VALID,21.7282,VALID,23,VALID,0,
2016-02-08, 12:34:04,VALID,918.13,VALID,0,VALID,100.095,VALID,185.551,VALID,21.6891,VALID,23,VALID,0,